CAPE1
1 31130U 07012P 13206.45815078 .00000431 00000-0 10744-3 0 8130
2 31130 097.9009 196.5693 0099153 309.7196 049.5292 14.53561833332339
COMPASS
1 32787U 08021E 13206.79846488 .00001512 00000-0 18023-3 0 6841
2 32787 097.7497 264.3594 0015376 171.8780 188.2688 14.85673401283697
AAUSAT2
1 32788U 08021F 13206.39092904 .00001698 00000-0 19927-3 0 6685
2 32788 097.7505 264.6227 0014905 172.3205 187.8242 14.86147981283678
DO-64
1 32789U 08021G 13206.77316177 .00002939 00000-0 31854-3 0 6984
2 32789 097.7655 269.0006 0014479 163.7189 339.4664 14.88892941283869
CO-66
1 32791U 08021J 13206.26023353 .00001188 00000-0 14593-3 0 6629
2 32791 097.7498 263.1482 0015750 174.8600 259.7223 14.84778384283522
RS-30
1 32953U 08025A 13206.53368353 .00000010 00000-0 00000 0 0 604
2 32953 082.4986 044.3426 0018967 146.2143 214.0154 12.43035405234672
METEOR-M
1 35865U 09049A 13206.71761209 -.00000013 00000-0 13561-4 0 6536
2 35865 098.5993 258.1898 0002314 345.4519 014.6583 14.21890270199947
RS-38
1 35869U 09049E 13206.74424680 .00000017 00000-0 27160-4 0 6096
2 35869 098.5928 258.1194 0004517 334.8292 025.2656 14.22137879199977
JUGNU
1 37839U 11058B 13206.04901468 .00000339 00000-0 39381-4 0 4278
2 37839 019.9624 077.3685 0018894 340.5357 170.4219 14.12168484 92257
SRMSAT
1 37841U 11058D 13205.09591744 .00000332 00000-0 37967-4 0 4290
2 37841 019.9728 095.9300 0011904 282.2916 219.5799 14.10236602 91997
RAX-2
1 37853U 11061D 13205.65550796 .00002092 00000-0 16518-3 0 5497
2 37853 101.7070 076.6643 0233799 280.0585 111.5042 14.83956058 94003
AUBIESAT
1 37854U 11061E 13206.15040865 .00002111 00000-0 16319-3 0 5429
2 37854 101.7105 078.3361 0233543 277.1383 206.9175 14.84708020 94099
HRBE
1 37855U 11061F 13206.16794807 .00002142 00000-0 16635-3 0 5473
2 37855 101.7105 078.0940 0234681 277.6172 230.1591 14.84350061 94083
RS-39
1 38051U 11062C 13206.52349244 .00010798 00000-0 33665-3 0 6349
2 38051 051.6350 025.3884 0011451 049.7656 053.5913 15.33711843 83663
E-STAR
1 38079U 12006C 13206.79825398 .00051678 32609-5 10617-2 0 3071
2 38079 069.4743 089.8114 0594844 085.8342 322.0796 14.50410579 75330
GOLIAT
1 38085U 12006J 13206.85576662 .00045599 31539-5 94396-3 0 2401
2 38085 069.4728 092.1613 0605359 086.9911 280.0201 14.48077008 75279
HORYU-2
1 38340U 12025D 13206.05963241 .00000834 00000-0 14406-3 0 5562
2 38340 098.2173 154.0459 0013348 129.4094 230.8301 14.71042309 63687
RS-40
1 38736U 12041D 13206.06782312 .00000010 00000-0 00000 0 0 3271
2 38736 082.4808 131.5138 0019974 243.7804 116.1222 12.42869469 44957
PROITERES
1 38756U 12047B 13206.46234203 .00000419 00000-0 71377-4 0 9677
2 38756 098.2515 284.2074 0012374 351.3687 008.7309 14.74278366 47037
RAIKO
1 38852U 98067CN 13205.55651821 .00395142 79239-4 68461-3 0 2966
2 38852 051.6327 252.0763 0007794 018.9802 341.1136 16.01661978 45825
FITSAT 1
1 38853U 98067CP 13184.86912902 .06638326 12312-4 50483-3 0 3153
2 38853 051.6252 351.6077 0011722 245.9321 114.2104 16.39337660 42708
TechEdSat
1 38854U 98067CQ 13124.93253577 .11592855 12481-4 94246-3 0 2908
2 38854 051.6449 297.0261 0010505 310.8629 049.0629 16.38844728 33294
F 1
1 38855U 98067CR 13129.77714356 .27424026 12535-4 30797-3 0 2871
2 38855 051.5085 272.4145 0008326 194.2908 166.5495 16.49710473 33949
WeWish
1 38856U 98067CS 13069.98095549 .16701328 12537-4 10063-2 0 2487
2 38856 051.6166 215.0521 0008325 316.0438 044.8765 16.41348316 24586
OSSI-1
1 39131U 13015B 13188.41684431 .01502874 74059-5 44818-3 0 85
2 39131 064.8841 114.8425 0051126 026.6892 350.0589 16.22925119 12374
BEESAT-3
1 39134U 13015E 13206.73599838 .00002879 00000-0 22654-3 0 2434
2 39134 064.8689 087.4682 0008514 203.9596 156.1737 15.00592718 14610
BEESAT-2
1 39136U 13015G 13206.16362994 .00002567 00000-0 21566-3 0 2226
2 39136 064.8778 089.2969 0008918 204.9260 298.0013 15.00537809 14529
